sat.trackr.live / text

‹ back to catalog

ONEWEB-0520

NORAD 54138 · 2022-138AB

PAYLOAD ACTIVE UNKNOWN

§ Identity

Operator
Country
UK
Launch date
2022-10-22
Launch site
SRILR
Launch vehicle
Mass (kg)
RCS (m²)

Purposes: comms

External: N2YO · Heavens-Above · Gunter

§ Orbital elements

Epoch: 2026-09-20T01:15:34.302240Z

Period
109.11 min
Inclination
87.9110°
Eccentricity
0.0001904
Mean motion
13.19725338 rev/d
Perigee alt
1,184.3 km
Apogee alt
1,187.2 km
Semi-major
7,563.9 km
B*
-6.0120e-5
RAAN
286.0696°
Arg perigee
83.8650°
Mean anomaly
276.2700°
Rev number
18,933

§ Raw data

ONEWEB-05201 54138U 22138AB  26263.05248035 -.00000011  00000+0 -60120-4 0  99992 54138  87.9110 286.0696 0001904  83.8650 276.2700 13.19725338189330

JSON: /api/v1/satellites/54138 · /tle

For live sub-satellite position, see the globe view (requires WebGL).

§ Visibility from observer

Set your observer location to see the next 7 days of passes ≥ 10°. The values pass through the URL so the page stays shareable.

No JS? Fill the form by hand. The geolocation button needs JavaScript.